Flag for Germany Weather past 2 weeks in Unna, North Rhine-Westphalia, Germany

Now
36 °F

Light rain. Partly sunny.


Feels Like: 25 °F
Forecast: 35 / 43 °F
Wind: 17 mph from Southwest

Location: Dortmund / Wickede

Current Time: Mar 2, 2015 at 5:51:16 PM

Latest Report: Mar 2, 2015 at 5:20 PM


Visibility: 3 mi

Pressure: 29.71 "Hg

Humidity: 87%

Dew point: 32 °F

Location of UnnaLocation

Historic Weather in Unna — Graph

°F

Unna temperature yesterday

Maximum temperature yesterday: 52 °F (at 12:50 PM)
Minimum temperature yesterday: 39 °F (at 5:20 AM)
Average temperature yesterday: 46 °F

Past Weeks' High & Low Weather Summary

 TemperatureHumidityPressure
High52 °F (Mar 1, 12:50 PM)100% (Feb 18, 10:20 AM)30.74 "Hg (Feb 18, 10:20 AM)
Low27 °F (Feb 16, 5:50 AM)42% (Feb 28, 1:50 PM)29.33 "Hg (Feb 21, 5:20 AM)
Average39 °F75%29.93 "Hg
* Reported Feb 15 4:20 PM — Mar 2 4:50 PM, Unna, Weather by CustomWeather, © 2015

Note: Actual official high and low records may vary slightly from our data, if they occured in-between our weather recording intervals... More about our weather records

Advertising

Unna weather history for previous 24 hours

 ConditionsComfort  
Time TempWeatherWind HumidityBarometerVisibility
4:50 PM
Mon, Mar 2
37 °FSprinkles. Partly sunny.17 mph81%29.71 "HgN/A
4:20 PM41 °FSprinkles. Scattered clouds.16 mph66%29.68 "HgN/A
3:50 PM45 °FScattered showers. Partly sunny.18 mph53%29.65 "HgN/A
3:20 PM46 °FScattered clouds.17 mph50%29.65 "HgN/A
2:50 PM46 °FSunny.18 mph46%29.65 "Hg10 mi
2:20 PM45 °FSunny.23 mph49%29.65 "Hg10 mi
1:50 PM45 °FSunny.21 mph42%29.65 "Hg10 mi
1:20 PM46 °FScattered clouds.21 mph43%29.65 "HgN/A
12:50 PM45 °FPassing clouds.20 mph46%29.65 "HgN/A
12:20 PM45 °FPassing clouds.20 mph46%29.65 "HgN/A
11:50 AM45 °FPassing clouds.21 mph46%29.65 "HgN/A
11:20 AM45 °FPassing clouds.18 mph49%29.65 "HgN/A
10:50 AM43 °FPassing clouds.14 mph57%29.65 "HgN/A
10:20 AM43 °FSunny.17 mph57%29.62 "Hg10 mi
9:50 AM41 °FPassing clouds.20 mph61%29.62 "HgN/A
9:20 AM41 °FSunny.16 mph61%29.59 "Hg10 mi
8:50 AM39 °FPassing clouds.13 mph65%29.59 "HgN/A
8:20 AM39 °FPassing clouds.12 mph65%29.59 "HgN/A
7:50 AM37 °FPassing clouds.14 mph75%29.56 "HgN/A
7:20 AM39 °FPassing clouds.13 mph65%29.56 "HgN/A
6:50 AM39 °FPassing clouds.17 mph65%29.53 "HgN/A
6:20 AM37 °FPassing clouds.14 mph70%29.53 "HgN/A
5:50 AM39 °FPassing clouds.15 mph65%29.53 "HgN/A
5:20 AM41 °FPassing clouds.13 mph66%29.50 "HgN/A
10:50 PM
Sun, Mar 1
45 °FClear.12 mph71%29.50 "Hg10 mi
10:20 PM45 °FClear.10 mph71%29.53 "Hg10 mi
9:50 PM45 °FClear.15 mph71%29.56 "Hg10 mi
9:20 PM45 °FClear.17 mph71%29.56 "Hg10 mi
8:20 PM43 °FClear.13 mph76%29.59 "Hg10 mi
7:50 PM45 °FClear.15 mph71%29.59 "Hg10 mi
7:20 PM46 °FClear.20 mph62%29.59 "Hg10 mi
6:50 PM46 °FClear.17 mph62%29.59 "Hg10 mi
6:20 PM46 °FPassing clouds.17 mph66%29.59 "HgN/A
5:50 PM48 °FSunny.17 mph62%29.59 "Hg10 mi
5:20 PM46 °FScattered clouds.16 mph62%29.59 "HgN/A
Weather by CustomWeather, © 2015

See weather overviewHow to use our weather pages